Showing default

QIANFAN-49, 62250

Orbit data source: Space-Track

QIANFAN-49, 62250 is a Chinese payload satellite in LEO that was launched on Thu, 05 Dec 2024 UTC via a CHANG ZHENG 6A launch vehicle from the Taiyaun Space Center, China (TSC). Payloads include a variety of satellites, spacecraft, and rockets equipped with specific instruments for various scientific and technological missions. These include communications satellites like Starlink; space stations such as the ISS; scientific satellites like the Hubble; Earth observation satellites from companies like Planet Labs, Umbra, and HawkEye 360; GPS; miniature CubeSats for education and research; and military/defense satellites.

Loading next visibility...
QIANFAN-49 details
Identifier
62250, 2024-232P
Orbit
LEO
Last TLE update17 hours ago
Origin
Flag of CNYUANX (CN / PRC)
ManufacturerSECM
MissionOperational Commercial Communications
Bus & MotorQIANFAN, Unknown motor
Mass300 kg wet, ~300 kg dry
Launch date (UTC)
2024-12-05 (2 months ago)
Launch vehicle
CHANG ZHENG 6A
Launch site
Taiyaun Space Center, China (TSC)
Object type
Payload
Rocket body
Debris
Shape & HBRBox + 1 Pan, 10 m
Radar Cross Section13.200 m², Large (>1 m²)

Expand to show TLE details & history

TLE from 17 hours ago
0 QIANFAN-49
1 62250U 24232P   25035.58654075  .00000425  00000-0  19902-3 0  9998
2 62250  88.9884  73.0984 0015560  27.8068 332.3949 14.18380705 25660
Epoch: 2025-02-04T14:04Z
Definitive object data (Epoch: 2025-02-04T14:04:37.12Z)
Latitude-0.0001°
Longitude86.95403°
Altitude823.946 km
Speed7.446 km/s
True Right ascension04h 52m 23s
True Declination0° 00' 00"
Sunlit
Object was in daylight at TLE epoch
Visualization TLE readout
Latitude-78.5884°
Longitude81.88291°
Altitude861.55 km
Speed7.419 km/s
Apparent Right ascension21h 47m 25s
Apparent Declination-68° 23' 54"
Sunlit
Object is in daylight
Visualization observer readout
Local Sidereal Time08:40:32
Azimuth192.273° SSW
Elevation-60.115°
Doppler factor1
Orbital elements
Apogee altitude839 km
Perigee altitude816.576 km
Semi-major axis7,205.925 km
Eccentricity0.001556
Inclination88.9884°
RAAN73.0984°
Arg. of periapsis27.8068°
True anomaly332.31214°
Mean anomaly332.3949°
Eccentric anomaly332.35353°
Mean motion3.5482 °/min
BSTAR0.00019902
Orbital period101.46 mins
Loading maneuver chart data...
Loading historical data...
Loading historical data...
Loading historical data...
Loading historical data...
Loading historical data...
Loading historical data...
Loading historical data...

QIANFAN-49 Visibility forecast

Observer location: undefined°, undefined

Span
Click to sort rows by Start time (UTC) header in descending order
Start Az.
Max El. time (UTC)
Max El. Az.
Max El.
End time (UTC)
End Az.
10 mins2025-02-05 14:21:20.010Z9.155° NNE2025-02-05 14:26:20.010Z91.23° ESE41.208°2025-02-05 14:31:20.010Z168.437° S
5 mins2025-02-05 16:05:20.010Z308.519° NW2025-02-05 16:07:20.010Z283.702° WNW15.531°2025-02-05 16:10:20.010Z249.687° W
7 mins2025-02-06 01:46:20.010Z123.597° SE2025-02-06 01:49:20.010Z82.319° E22.995°2025-02-06 01:53:20.010Z28.731° NE
8 mins2025-02-06 03:27:20.010Z216.572° SW2025-02-06 03:30:20.010Z262.434° W30.697°2025-02-06 03:35:20.010Z339.919° N
|